Regional Weather Roundup
Issued by NWS

Home | Current Version | Previous Version | Graphics & Text | Print | Product List | Glossary On
Versions: 1 2 3 4 5 6 7 8 9 10 11 12 13 14 15 16 17 18 19 20 21 22 23 24 25 26 27 28 29 30 31 32 33 34 35 36 37 38 39 40 41 42 43 44 45 46 47 48 49 50
000
ASUS43 KOAX 251910
RWRNE

WEATHER ROUNDUP FOR NEBRASKA
NATIONAL WEATHER SERVICE OMAHA NE
200 PM CDT SAT APR 25 2015

NOTES: SATELLITE DATA IS BEING USED TO AUGMENT CLOUD COVER ABOVE
       12000 FEET.
       "FAIR" INDICATES FEW OR NO CLOUDS BELOW 12,000 FEET WITH NO
       SIGNIFICANT WEATHER AND/OR OBSTRUCTIONS TO VISIBILITY.

  * THESE STATIONS DO NOT REPORT WEATHER SUCH AS RAIN...SNOW OR FOG.

NEZ001>004-019>022-054>056-252000-
NEBRASKA PANHANDLE

CITY           SKY/WX    TMP DP  RH WIND       PRES   REMARKS
SCOTTSBLUFF    MOSUNNY   68  37  32 W7        29.69F
ALLIANCE       SUNNY     66  45  46 E8        29.69F
CHADRON        MOSUNNY   64  49  57 NE10      29.68F
KIMBALL        PTSUNNY   64  38  38 NE6       29.71F
SIDNEY         MOSUNNY   66  41  40 E6G16     29.71F
$$

NEZ057>060-069>072-079>082-252000-
SOUTHWEST NEBRASKA

CITY           SKY/WX    TMP DP  RH WIND       PRES   REMARKS
IMPERIAL       MOSUNNY   66  43  43 CALM      29.69F
LEXINGTON      PTSUNNY   62  51  68 NE12      29.69S
MCCOOK         MOSUNNY   69  49  48 NE8       29.67F
OGALLALA       MOSUNNY   66  47  49 E3        29.69F
$$

NEZ005>010-023>029-035>040-094-252000-
NORTH CENTRAL NEBRASKA

CITY           SKY/WX    TMP DP  RH WIND       PRES   REMARKS
VALENTINE      CLOUDY    59  48  67 E7        29.72F
AINSWORTH      CLOUDY    58  48  69 E9G16     29.73R
BROKEN BOW     CLOUDY    59  50  72 NE12      29.70S
O`NEILL        CLOUDY    51  49  92 NE10      29.75R FOG
ORD            CLOUDY    50  46  86 NE10      29.72R
THEDFORD       PTSUNNY   64  51  64 NE13      29.71F
$$

NEZ041-046>049-061>064-073>077-083>087-252000-
SOUTH CENTRAL NEBRASKA

CITY           SKY/WX    TMP DP  RH WIND       PRES   REMARKS
GRAND ISLAND   CLOUDY    48  46  93 N12       29.72R FOG
AURORA         CLOUDY    49  49 100 N13       29.70R FOG
HASTINGS       CLOUDY    50  48  93 N12       29.70R FOG
HEBRON         CLOUDY    52  48  88 N12       29.67R FOG
HOLDREGE       CLOUDY    53  51  91 NE15      29.70R FOG
KEARNEY *      CLOUDY    54  48  82 N16       29.70S
YORK           CLOUDY    48  46  93 NE16      29.69R FOG
$$

NEZ011>018-030>034-042>045-252000-
NORTHEAST NEBRASKA

CITY           SKY/WX    TMP DP  RH WIND       PRES   REMARKS
NORFOLK        CLOUDY    51  47  86 NE12      29.73R FOG
ALBION         CLOUDY    49  47  92 NE12      29.72R FOG
BLAIR          CLOUDY    48  45  90 NE14      29.69R FOG
COLUMBUS *     CLOUDY    48  43  81 NE12G20   29.72S
FREMONT        CLOUDY    51  47  86 NE10G16   29.71R
TEKAMAH        CLOUDY    52  47  83 N14       29.72R
WAYNE          CLOUDY    55  47  73 E14G20    29.74S
$$

NEZ050>053-065>068-078-088>093-252000-
SOUTHEAST NEBRASKA

CITY           SKY/WX    TMP DP  RH WIND       PRES   REMARKS
LINCOLN        CLOUDY    50  47  89 N21       29.69R
OMAHA EPPLEY   CLOUDY    50  46  86 N12       29.70R FOG
BEATRICE       CLOUDY    50  48  92 N13G18    29.66R
FALLS CITY     LGT RAIN  53  50  89 N17       29.60R FOG
NEBRASKA CITY  CLOUDY    49  49  99 N18       29.65R FOG
PLATTSMOUTH    CLOUDY    47  46  93 N9G18     29.67R FOG
$$

NEZ044-045-051>053-067-252000-
OMAHA AREA

CITY           SKY/WX    TMP DP  RH WIND       PRES   REMARKS
OMAHA EPPLEY   CLOUDY    50  46  86 N12       29.70R FOG
BLAIR          CLOUDY    48  45  90 NE14      29.69R FOG
FREMONT        CLOUDY    51  47  86 NE10G16   29.71R
MILLARD        CLOUDY    50  46  85 N9        29.69R
OFFUTT AFB     CLOUDY    49  46  90 N12       29.68R
PLATTSMOUTH    CLOUDY    47  46  93 N9G18     29.67R FOG
WAHOO          CLOUDY    50  46  87 NE16      29.69R
$$


USA.gov is the U.S. government's official web portal to all federal, state and local government web resources and services.